EW0533 Weather Reports


time (UTC)temp
C
wind
direction
speed
KPH
gust
KPH
rain 1hr
cm
rain 24hr
cm
rain mn
cm
humidity
%
barometer
mb
20260505214559 16 155 3.2 12.9 0.00 0.00 0.00 45 1001.6
20260505213035 17 155 0.0 9.7 0.00 0.00 0.00 42 1001.7
20260505211535 17 155 1.6 9.7 0.00 0.00 0.00 41 1001.7
20260505210036 18 155 3.2 11.3 0.00 0.00 0.00 39 1001.8
20260505204534 18 155 3.2 11.3 0.00 0.00 0.00 39 1002.2
20260505203028 17 155 1.6 9.7 0.00 0.00 0.00 42 1002.4
20260505201527 16 155 1.6 8.0 0.00 0.00 0.00 44 1002.6
20260505200035 16 156 0.0 11.3 0.00 0.00 0.00 44 1002.8
20260505194525 16 156 1.6 9.7 0.00 0.00 0.00 41 1002.9
20260505193025 16 155 4.8 11.3 0.00 0.00 0.00 40 1002.9
20260505191525 16 155 1.6 8.0 0.00 0.00 0.00 42 1002.9
20260505190028 16 155 0.0 11.3 0.00 0.00 0.00 42 1002.9
20260505184524 16 156 6.4 12.9 0.00 0.00 0.00 42 1003.0
20260505183029 16 155 1.6 8.0 0.00 0.00 0.00 40 1002.8
20260505181523 16 155 4.8 12.9 0.00 0.00 0.00 41 1002.8
20260505180024 17 156 1.6 9.7 0.00 0.00 0.00 38 1002.6
20260505174524 16 155 0.0 4.8 0.00 0.00 0.00 40 1002.7
20260505173022 16 155 0.0 8.0 0.00 0.00 0.00 40 1002.5
20260505171520 16 155 1.6 8.0 0.00 0.00 0.00 39 1002.6
20260505170020 16 156 1.6 9.7 0.00 0.00 0.00 38 1003.1
20260505164519 15 155 0.0 8.0 0.00 0.00 0.00 42 1002.9
20260505163019 14 155 1.6 12.9 0.00 0.00 0.00 43 1003.2
20260505161519 13 155 3.2 12.9 0.00 0.00 0.00 45 1003.0
20260505153016 12 155 8.0 20.9 0.00 0.00 0.00 49 1003.8
20260505151515 12 155 8.0 22.5 0.00 0.00 0.00 54 1003.8
20260505124553 13 155 0.0 0.0 0.00 0.00 0.00 37 1003.0
20260505123055 13 155 0.0 0.0 0.00 0.00 0.00 37 1003.2
20260505121552 13 155 0.0 3.2 0.00 0.00 0.00 37 1003.0
20260505120054 13 155 1.6 4.8 0.00 0.00 0.00 37 1002.8
20260505114557 13 155 0.0 0.0 0.00 0.00 0.00 36 1002.8
20260505113059 13 155 0.0 0.0 0.00 0.00 0.00 35 1002.6
20260505111546 13 155 0.0 0.0 0.00 0.00 0.00 35 1002.5
20260505101550 14 155 0.0 1.6 0.00 0.00 0.00 34 1002.7
20260505100043 14 155 0.0 0.0 0.00 0.00 0.00 33 1002.6
20260505094542 14 156 0.0 0.0 0.00 0.00 0.00 33 1002.6
20260505093039 14 155 0.0 1.6 0.00 0.00 0.00 33 1002.2
20260505091542 15 155 0.0 0.0 0.00 0.00 0.00 32 1002.6
20260505090034 15 156 0.0 1.6 0.00 0.00 0.00 31 1002.9
20260505084533 15 155 0.0 3.2 0.00 0.00 0.00 31 1002.6
20260505083029 16 155 0.0 8.0 0.00 0.00 0.00 30 1003.0
20260505081529 16 155 1.6 6.4 0.00 0.00 0.00 30 1003.3
20260505080030 16 155 0.0 4.8 0.00 0.00 0.00 30 1003.4
20260505074527 16 155 1.6 4.8 0.00 0.00 0.00 29 1003.3
20260505073021 16 156 0.0 4.8 0.00 0.00 0.00 28 1002.9
20260505071621 17 155 0.0 6.4 0.00 0.00 0.00 27 1003.2
20260505070018 17 155 0.0 3.2 0.00 0.00 0.00 26 1003.0
20260505064514 17 155 1.6 6.4 0.00 0.00 0.00 25 1002.6
20260505063010 17 155 1.6 6.4 0.00 0.00 0.00 25 1002.3
20260505061509 17 155 3.2 9.7 0.00 0.00 0.00 24 1002.3
20260505060022 17 155 0.0 3.2 0.00 0.00 0.00 23 1002.3
20260505054506 18 155 1.6 8.0 0.00 0.00 0.00 22 1002.2
20260505053004 18 156 1.6 8.0 0.00 0.00 0.00 21 1002.2
20260505051512 18 155 1.6 9.7 0.00 0.00 0.00 21 1002.3
20260505041502 19 155 0.0 6.4 0.00 0.00 0.00 23 1002.1
20260505040002 19 155 0.0 3.2 0.00 0.00 0.00 23 1002.0
20260505034501 19 156 0.0 4.8 0.00 0.00 0.00 22 1001.9
20260505033100 20 155 0.0 4.8 0.00 0.00 0.00 21 1001.7
20260505031601 20 155 0.0 4.8 0.00 0.00 0.00 21 1001.5
20260505030059 20 155 1.6 9.7 0.00 0.00 0.00 20 1001.2
20260505024607 21 155 4.8 14.5 0.00 0.00 0.00 19 1001.0
20260505023102 21 155 3.2 9.7 0.00 0.00 0.00 19 1001.0
20260505021558 21 156 1.6 11.3 0.00 0.00 0.00 18 1000.9
20260505020057 21 155 1.6 11.3 0.00 0.00 0.00 19 1000.8
20260505014557 21 155 1.6 6.4 0.00 0.00 0.00 19 1000.6
20260505013116 22 155 3.2 14.5 0.00 0.00 0.00 18 1000.4
20260505011607 22 155 6.4 17.7 0.00 0.00 0.00 17 1000.3
20260505010107 22 155 1.6 6.4 0.00 0.00 0.00 15 1000.4
20260505004553 23 155 1.6 12.9 0.00 0.00 0.00 14 1000.3
20260505003056 23 156 6.4 17.7 0.00 0.00 0.00 13 1000.4
20260505001551 23 155 6.4 14.5 0.00 0.00 0.00 12 1000.5
20260505000059 23 155 3.2 8.0 0.00 0.00 0.00 12 1000.4
20260504234548 23 155 3.2 14.5 0.00 0.00 0.00 11 1000.5
20260504233054 23 155 4.8 17.7 0.00 0.00 0.00 10 1000.7
20260504231546 23 155 4.8 12.9 0.00 0.00 0.00 11 1000.7
20260504230046 23 155 8.0 25.7 0.00 0.00 0.00 10 1000.6
20260504224543 24 155 8.0 20.9 0.00 0.00 0.00 11 1000.7
20260504223047 24 156 11.3 22.5 0.00 0.00 0.00 10 1000.7
20260504221542 24 155 9.7 24.1 0.00 0.00 0.00 11 1000.7
20260504220043 24 155 9.7 25.7 0.00 0.00 0.00 11 1001.2